This demonstration page uses our WeatherBlox Daily Observations layout. Learn more.

Left ArrowRight Arrow

40.92945, -100.16068

Hourly Observations for April 27, 2021

Temp ( °F °C ) Dew Point ( °F °C ) Humidity (%) Winds ( mph kmh ) Pressure ( in mb ) Visibility ( mi km ) Precip ( " mm )
12:15 am 00:15 Clear 70 20.9 53 11.5 55 55 ESE 8 13 29.37 994 10 16 N/A
12:35 am 00:35 Clear 70 21.3 53 11.5 54 54 SE 7 11 29.36 994 10 16 N/A
12:55 am 00:55 Clear 69 20.4 53 11.5 57 57 ESE 6 9 29.37 995 10 16 N/A
1:15 am 01:15 Clear 68 19.8 53 11.5 59 59 SE 8 13 29.37 994 10 16 N/A
1:35 am 01:35 Clear 66 18.9 52 11.1 61 61 SE 7 11 29.37 995 10 16 N/A
1:55 am 01:55 Clear 64 18 52 11 64 64 SE 8 13 29.37 995 10 16 N/A
2:15 am 02:15 Clear 63 17.1 51 10.7 66 66 ESE 7 11 29.37 995 10 16 N/A
2:35 am 02:35 Clear 59 15 50 10.2 73 73 NE 8 13 29.40 995 10 16 N/A
2:55 am 02:55 Clear 58 14.2 51 10.3 78 78 ENE 8 13 29.39 995 10 16 N/A
3:15 am 03:15 Clear 56 13.6 50 10.1 80 80 E 8 13 29.40 996 10 16 N/A
3:35 am 03:35 Clear 58 14.6 51 10.3 76 76 E 6 9 29.40 996 10 16 N/A
3:55 am 03:55 Clear 55 12.7 49 9.7 82 82 NNE 7 11 29.42 996 10 16 N/A
4:15 am 04:15 Clear 53 11.7 49 9.3 85 85 N 5 7 29.47 998 10 16 N/A
4:35 am 04:35 Clear 55 12.5 52 10.9 90 90 N 16 26 29.46 998 10 16 N/A
4:55 am 04:55 Clear 55 12.7 52 11 89 89 N 25 41 29.46 998 10 16 N/A
5:15 am 05:15 Clear 55 12.5 51 10.6 88 88 N 22 35 29.48 998 10 16 N/A
5:35 am 05:35 Clear 54 12 50 10.1 88 88 NNE 21 33 29.49 999 7 11 N/A
5:55 am 05:55 Partly Cloudy 53 11.6 50 9.8 89 89 N 16 26 29.53 1000 7 11 N/A
6:15 am 06:15 Partly Cloudy 52 11 49 9.2 89 89 N 17 28 29.54 1000 7 11 N/A
6:35 am 06:35 Partly Cloudy 51 10.7 48 8.9 89 89 N 18 30 29.54 1000 7 11 N/A
6:55 am 06:55 Partly Cloudy 51 10.5 47 8.6 88 88 NW 14 22 29.62 1003 7 11 N/A
7:15 am 07:15 Mostly Cloudy 51 10.6 47 8.6 88 88 NNE 15 24 29.59 1002 7 11 N/A
7:35 am 07:35 Partly Cloudy 52 11 48 8.8 86 86 N 12 19 29.63 1003 7 11 N/A
7:55 am 07:55 Mostly Cloudy 53 11.4 48 9 85 85 NNW 9 15 29.65 1004 7 11 N/A
8:15 am 08:15 Cloudy 54 12 48 9 82 82 N 22 35 29.64 1004 7 11 N/A
8:35 am 08:35 Cloudy 54 12.2 48 9 81 81 N 23 37 29.62 1003 10 16 N/A
8:55 am 08:55 Cloudy 55 12.6 48 9.1 79 79 N 22 35 29.64 1004 10 16 N/A
9:15 am 09:15 Mostly Cloudy 55 13 48 8.8 76 76 N 18 30 29.64 1004 10 16 N/A
9:35 am 09:35 Mostly Cloudy 55 13 48 8.7 75 75 N 20 31 29.65 1004 10 16 N/A
9:55 am 09:55 Cloudy 55 12.5 47 8.6 77 77 NNE 17 28 29.68 1005 10 16 N/A
10:15 am 10:15 Cloudy 55 12.5 48 8.8 78 78 N 17 28 29.71 1006 10 16 N/A
10:35 am 10:35 Cloudy 54 12 47 8.4 79 79 N 20 31 29.71 1006 10 16 N/A
10:55 am 10:55 Cloudy 55 13 47 8.6 75 75 NNE 17 28 29.70 1006 10 16 N/A
11:15 am 11:15 Cloudy 55 13 47 8.5 74 74 N 20 31 29.72 1007 10 16 N/A
11:35 am 11:35 Cloudy 56 13.3 47 8.5 73 73 NNE 18 30 29.73 1007 10 16 N/A
11:55 am 11:55 Cloudy 57 14.1 47 8.6 70 70 N 23 37 29.71 1006 10 16 N/A
12:15 pm 12:15 Cloudy 58 14.2 48 8.7 70 70 NNE 20 31 29.71 1006 10 16 N/A
12:35 pm 12:35 Cloudy 59 15 48 8.9 67 67 N 20 31 29.71 1006 10 16 N/A
12:55 pm 12:55 Partly Cloudy 59 15 48 8.8 67 67 N 21 33 29.70 1006 10 16 N/A
1:15 pm 13:15 Partly Cloudy 59 15.2 48 9 67 67 NNE 21 33 29.67 1005 10 16 N/A
1:35 pm 13:35 Sunny 58 14.6 48 9 69 69 NNE 16 26 29.70 1006 10 16 N/A
1:55 pm 13:55 Sunny 59 14.9 48 8.8 67 67 N 18 30 29.69 1005 10 16 N/A
2:15 pm 14:15 Sunny 61 16 49 9.2 64 64 NNE 14 22 29.68 1005 10 16 N/A
2:35 pm 14:35 Sunny 62 16.8 49 9.5 62 62 NNE 17 28 29.68 1005 10 16 N/A
2:55 pm 14:55 Sunny 64 17.5 49 9.7 60 60 NE 17 28 29.68 1005 10 16 N/A
3:15 pm 15:15 Sunny 65 18.2 50 10.1 59 59 NE 13 20 29.69 1005 10 16 N/A
3:35 pm 15:35 Partly Cloudy 65 18.3 51 10.3 60 60 NE 15 24 29.69 1005 10 16 N/A
3:55 pm 15:55 Mostly Cloudy 65 18.2 51 10.4 61 61 ENE 14 22 29.69 1005 10 16 N/A
4:15 pm 16:15 Mostly Cloudy 64 17.9 50 10 60 60 NE 16 26 29.69 1005 10 16 N/A
4:35 pm 16:35 Cloudy 64 17.5 50 10 62 62 NNE 17 28 29.70 1006 10 16 N/A
4:55 pm 16:55 Cloudy 61 16 49 9.2 64 64 NNE 17 28 29.73 1007 10 16 N/A
5:15 pm 17:15 Cloudy 59 15.1 48 9 67 67 NNE 18 30 29.74 1007 10 16 N/A
5:35 pm 17:35 Cloudy 58 14.7 48 9.1 69 69 NNE 17 28 29.75 1007 10 16 N/A
5:55 pm 17:55 Cloudy 58 14.5 49 9.2 71 71 NE 18 30 29.75 1007 10 16 N/A
6:15 pm 18:15 Cloudy 57 14.1 48 9 72 72 NE 21 33 29.75 1008 10 16 N/A
6:35 pm 18:35 Cloudy 58 14.2 48 9.1 72 72 NE 22 35 29.74 1007 10 16 N/A
6:55 pm 18:55 Cloudy with Nearby Thunderstorms 57 14 48 8.9 72 72 NE 17 28 29.77 1008 10 16 N/A
7:15 pm 19:15 Cloudy 57 13.8 48 8.7 72 72 NE 17 28 29.76 1008 10 16 N/A
7:35 pm 19:35 Cloudy 57 13.7 48 8.8 72 72 NE 15 24 29.78 1008 10 16 N/A
7:55 pm 19:55 Cloudy 56 13.5 48 8.8 73 73 NNE 17 28 29.78 1008 10 16 N/A
8:15 pm 20:15 Cloudy with Nearby Thunderstorms 56 13.1 48 8.7 75 75 NNE 17 28 29.78 1009 10 16 N/A
8:35 pm 20:35 Cloudy 55 13 47 8.5 74 74 NNE 15 24 29.80 1009 10 16 N/A
8:55 pm 20:55 Cloudy 55 12.8 47 8.5 75 75 NNE 13 20 29.83 1010 10 16 N/A
9:15 pm 21:15 Cloudy with Light Rain 55 12.5 48 8.7 78 78 NNE 23 37 29.79 1009 10 16 N/A
9:35 pm 21:35 Cloudy 55 12.5 48 8.8 78 78 NE 14 22 29.83 1010 10 16 N/A
9:55 pm 21:55 Cloudy with Rain 54 12.1 48 9.1 82 82 NE 23 37 29.79 1009 10 16 N/A
10:15 pm 22:15 Cloudy with Drizzle 54 12 49 9.4 84 84 NE 16 26 29.81 1010 10 16 N/A
10:35 pm 22:35 Cloudy 54 12.1 49 9.4 84 84 NE 18 30 29.81 1010 10 16 N/A
10:55 pm 22:55 Cloudy 54 12 49 9.5 85 85 ENE 17 28 29.81 1010 10 16 N/A
11:15 pm 23:15 Windy with Storms Likely 54 12 49 9.5 85 85 NE 22 35 29.80 1009 10 16 N/A
11:35 pm 23:35 Mostly Cloudy 53 11.8 49 9.5 86 86 NE 20 31 29.78 1009 10 16 N/A
11:55 pm 23:55 Mostly Cloudy 53 11.6 49 9.5 87 87 NE 16 26 29.79 1009 10 16 N/A

Powered by AerisWeather